| time (UTC) | temp F | wind direction | speed MPH | gust MPH | rain 1hr in | rain 24hr in | rain mn in | humidity % | barometer mb |
| 20260508014004 | 50 | 27 | 0.0 | 2.0 | 0.00 | 0.12 | 0.11 | 49 | 991.2 |
| 20260508013004 | 50 | 60 | 1.0 | 6.0 | 0.00 | 0.13 | 0.11 | 50 | 991.3 |
| 20260508012004 | 50 | 246 | 0.0 | 2.0 | 0.00 | 0.13 | 0.11 | 50 | 991.1 |
| 20260508010005 | 51 | 317 | 1.0 | 3.0 | 0.00 | 0.13 | 0.11 | 47 | 990.9 |
| 20260508004004 | 52 | 47 | 0.0 | 2.0 | 0.00 | 0.13 | 0.11 | 45 | 990.6 |
| 20260508003005 | 52 | 342 | 0.0 | 1.0 | 0.00 | 0.13 | 0.11 | 45 | 990.4 |
| 20260508002005 | 53 | 80 | 0.0 | 3.0 | 0.00 | 0.13 | 0.11 | 45 | 990.3 |
| 20260508001004 | 54 | 337 | 0.0 | 3.0 | 0.00 | 0.13 | 0.11 | 41 | 990.1 |
| 20260507235005 | 55 | 344 | 1.0 | 6.0 | 0.00 | 0.13 | 0.11 | 43 | 990.1 |
| 20260507233004 | 56 | 14 | 2.0 | 6.0 | 0.00 | 0.13 | 0.11 | 40 | 989.8 |
| 20260507232005 | 57 | 40 | 2.0 | 6.0 | 0.00 | 0.13 | 0.11 | 37 | 989.6 |
| 20260507231005 | 57 | 326 | 0.0 | 7.0 | 0.00 | 0.13 | 0.11 | 39 | 989.4 |
| 20260507230006 | 58 | 34 | 2.0 | 7.0 | 0.00 | 0.13 | 0.11 | 37 | 989.3 |
| 20260507225004 | 58 | 350 | 5.0 | 10.0 | 0.00 | 0.13 | 0.11 | 34 | 989.2 |
| 20260507224004 | 59 | 331 | 2.0 | 9.0 | 0.00 | 0.13 | 0.11 | 36 | 989.0 |
| 20260507223004 | 59 | 338 | 2.0 | 8.0 | 0.00 | 0.13 | 0.11 | 35 | 988.9 |
| 20260507222004 | 60 | 29 | 2.0 | 7.0 | 0.00 | 0.13 | 0.11 | 33 | 988.9 |
| 20260507221003 | 60 | 4 | 2.0 | 8.0 | 0.00 | 0.13 | 0.11 | 32 | 988.8 |
| 20260507220004 | 60 | 5 | 1.0 | 13.0 | 0.00 | 0.14 | 0.11 | 34 | 988.7 |
| 20260507212003 | 60 | 340 | 1.0 | 12.0 | 0.00 | 0.14 | 0.11 | 33 | 988.7 |
| 20260507211004 | 61 | 348 | 3.0 | 9.0 | 0.00 | 0.15 | 0.11 | 32 | 988.7 |
| 20260507210005 | 61 | 21 | 3.0 | 8.0 | 0.00 | 0.16 | 0.11 | 33 | 988.6 |
| 20260507205004 | 61 | 19 | 4.0 | 12.0 | 0.00 | 0.17 | 0.11 | 32 | 988.5 |
| 20260507204004 | 62 | 10 | 3.0 | 10.0 | 0.00 | 0.19 | 0.11 | 30 | 988.5 |
| 20260507202004 | 61 | 316 | 3.0 | 13.0 | 0.00 | 0.21 | 0.11 | 32 | 988.5 |
| 20260507201004 | 61 | 330 | 6.0 | 12.0 | 0.00 | 0.21 | 0.11 | 32 | 988.5 |
| 20260507200004 | 62 | 344 | 4.0 | 9.0 | 0.00 | 0.21 | 0.11 | 32 | 988.6 |
| 20260507195004 | 61 | 218 | 5.0 | 12.0 | 0.00 | 0.23 | 0.11 | 29 | 988.5 |
| 20260507194004 | 62 | 339 | 3.0 | 18.0 | 0.00 | 0.24 | 0.11 | 30 | 988.4 |
| 20260507193004 | 62 | 38 | 5.0 | 15.0 | 0.00 | 0.25 | 0.11 | 29 | 988.6 |
| 20260507192003 | 62 | 68 | 4.0 | 14.0 | 0.00 | 0.26 | 0.11 | 31 | 988.7 |
| 20260507191004 | 62 | 331 | 3.0 | 15.0 | 0.00 | 0.29 | 0.11 | 37 | 988.7 |
| 20260507190005 | 61 | 244 | 3.0 | 10.0 | 0.00 | 0.38 | 0.11 | 36 | 988.7 |
| 20260507185003 | 60 | 356 | 6.0 | 10.0 | 0.00 | 0.42 | 0.11 | 34 | 988.8 |
| 20260507184004 | 60 | 263 | 3.0 | 10.0 | 0.00 | 0.45 | 0.11 | 43 | 988.8 |
| 20260507183004 | 60 | 332 | 3.0 | 12.0 | 0.00 | 0.46 | 0.11 | 46 | 988.8 |
| 20260507182004 | 61 | 237 | 3.0 | 12.0 | 0.00 | 0.46 | 0.11 | 45 | 988.9 |
| 20260507181004 | 61 | 346 | 4.0 | 12.0 | 0.00 | 0.46 | 0.11 | 43 | 988.8 |
| 20260507180005 | 62 | 355 | 3.0 | 12.0 | 0.00 | 0.46 | 0.11 | 47 | 988.8 |
| 20260507175003 | 62 | 314 | 0.0 | 9.0 | 0.00 | 0.46 | 0.11 | 45 | 988.9 |
| 20260507174004 | 62 | 242 | 5.0 | 13.0 | 0.00 | 0.46 | 0.11 | 45 | 988.7 |
| 20260507173004 | 60 | 246 | 6.0 | 13.0 | 0.00 | 0.46 | 0.11 | 49 | 989.0 |
| 20260507171004 | 61 | 261 | 5.0 | 9.0 | 0.00 | 0.46 | 0.11 | 50 | 989.1 |
| 20260507170004 | 60 | 27 | 2.0 | 8.0 | 0.00 | 0.46 | 0.11 | 50 | 989.2 |
| 20260507165005 | 62 | 291 | 2.0 | 9.0 | 0.00 | 0.46 | 0.11 | 47 | 989.3 |
| 20260507164003 | 62 | 8 | 4.0 | 9.0 | 0.00 | 0.46 | 0.11 | 52 | 989.3 |
| 20260507163005 | 61 | 279 | 2.0 | 8.0 | 0.00 | 0.46 | 0.11 | 52 | 989.3 |
| 20260507162004 | 60 | 345 | 3.0 | 8.0 | 0.00 | 0.46 | 0.11 | 48 | 989.4 |
| 20260507161004 | 60 | 242 | 3.0 | 9.0 | 0.00 | 0.46 | 0.11 | 50 | 989.5 |
| 20260507160004 | 60 | 359 | 5.0 | 8.0 | 0.00 | 0.46 | 0.11 | 48 | 989.7 |
| 20260507155004 | 59 | 230 | 4.0 | 9.0 | 0.00 | 0.46 | 0.11 | 49 | 989.9 |
| 20260507154004 | 59 | 308 | 2.0 | 7.0 | 0.00 | 0.46 | 0.11 | 53 | 990.0 |
| 20260507153004 | 59 | 12 | 1.0 | 7.0 | 0.00 | 0.46 | 0.11 | 53 | 990.1 |
| 20260507152003 | 60 | 245 | 2.0 | 9.0 | 0.00 | 0.46 | 0.11 | 52 | 990.1 |
| 20260507151004 | 59 | 152 | 2.0 | 8.0 | 0.00 | 0.46 | 0.11 | 55 | 990.0 |
| 20260507150004 | 59 | 90 | 2.0 | 9.0 | 0.00 | 0.46 | 0.11 | 55 | 990.1 |
| 20260507143004 | 57 | 221 | 3.0 | 8.0 | 0.00 | 0.46 | 0.11 | 58 | 990.3 |
| 20260507142004 | 57 | 99 | 2.0 | 9.0 | 0.00 | 0.46 | 0.11 | 58 | 990.5 |
| 20260507140004 | 56 | 239 | 3.0 | 12.0 | 0.00 | 0.46 | 0.11 | 60 | 990.7 |
| 20260507135004 | 57 | 207 | 2.0 | 6.0 | 0.00 | 0.46 | 0.11 | 64 | 990.8 |
| 20260507134004 | 56 | 176 | 1.0 | 6.0 | 0.00 | 0.46 | 0.11 | 64 | 990.8 |
| 20260507133005 | 55 | 112 | 2.0 | 6.0 | 0.00 | 0.46 | 0.11 | 62 | 990.9 |
| 20260507132003 | 55 | 44 | 3.0 | 6.0 | 0.00 | 0.46 | 0.11 | 63 | 990.8 |
| 20260507131004 | 54 | 313 | 2.0 | 7.0 | 0.00 | 0.46 | 0.11 | 64 | 990.9 |
| 20260507125004 | 53 | 272 | 2.0 | 6.0 | 0.00 | 0.46 | 0.11 | 67 | 990.9 |
| 20260507124004 | 52 | 4 | 3.0 | 8.0 | 0.00 | 0.46 | 0.11 | 67 | 991.0 |
| 20260507123004 | 52 | 47 | 3.0 | 12.0 | 0.00 | 0.46 | 0.11 | 68 | 991.1 |
| 20260507122005 | 51 | 57 | 5.0 | 9.0 | 0.00 | 0.46 | 0.11 | 70 | 991.0 |
| 20260507121004 | 51 | 0 | 2.0 | 7.0 | 0.00 | 0.46 | 0.11 | 71 | 991.1 |
| 20260507120004 | 50 | 47 | 0.0 | 7.0 | 0.00 | 0.46 | 0.11 | 75 | 991.1 |
| 20260507115004 | 49 | 311 | 3.0 | 7.0 | 0.00 | 0.46 | 0.11 | 74 | 991.1 |
| 20260507114004 | 49 | 31 | 2.0 | 5.0 | 0.00 | 0.46 | 0.11 | 77 | 991.1 |
| 20260507113004 | 48 | 10 | 2.0 | 7.0 | 0.00 | 0.46 | 0.11 | 79 | 991.0 |
| 20260507112004 | 47 | 0 | 1.0 | 5.0 | 0.00 | 0.46 | 0.11 | 84 | 991.2 |
| 20260507111005 | 47 | 343 | 0.0 | 0.0 | 0.00 | 0.46 | 0.11 | 89 | 991.4 |
| 20260507110005 | 47 | 343 | 0.0 | 5.0 | 0.00 | 0.46 | 0.11 | 90 | 991.1 |
| 20260507105004 | 46 | 124 | 0.0 | 2.0 | 0.00 | 0.46 | 0.11 | 94 | 991.5 |
| 20260507104004 | 46 | 308 | 0.0 | 0.0 | 0.00 | 0.46 | 0.11 | 94 | 991.3 |
| 20260507103004 | 46 | 308 | 0.0 | 0.0 | 0.00 | 0.46 | 0.11 | 94 | 991.2 |
| 20260507102006 | 46 | 308 | 0.0 | 0.0 | 0.00 | 0.46 | 0.11 | 93 | 991.1 |
| 20260507101004 | 46 | 308 | 0.0 | 0.0 | 0.00 | 0.46 | 0.11 | 93 | 991.4 |
| 20260507094005 | 46 | 320 | 1.0 | 2.0 | 0.00 | 0.46 | 0.11 | 93 | 990.6 |
| 20260507093004 | 46 | 41 | 0.0 | 2.0 | 0.00 | 0.46 | 0.11 | 92 | 990.4 |
| 20260507092004 | 46 | 346 | 0.0 | 0.0 | 0.00 | 0.46 | 0.11 | 91 | 990.5 |
| 20260507091004 | 47 | 346 | 0.0 | 1.0 | 0.00 | 0.46 | 0.11 | 90 | 990.5 |
| 20260507090005 | 47 | 302 | 1.0 | 3.0 | 0.00 | 0.46 | 0.11 | 90 | 990.9 |
| 20260507085005 | 47 | 350 | 0.0 | 3.0 | 0.00 | 0.46 | 0.11 | 90 | 990.5 |
| 20260507084003 | 47 | 327 | 2.0 | 6.0 | 0.00 | 0.46 | 0.11 | 89 | 991.2 |
| 20260507083004 | 47 | 348 | 1.0 | 5.0 | 0.00 | 0.46 | 0.11 | 90 | 990.8 |
| 20260507082004 | 47 | 34 | 0.0 | 0.0 | 0.00 | 0.46 | 0.11 | 90 | 990.6 |
| 20260507081004 | 47 | 33 | 1.0 | 5.0 | 0.00 | 0.46 | 0.11 | 89 | 990.7 |
| 20260507080005 | 48 | 292 | 1.0 | 7.0 | 0.00 | 0.46 | 0.11 | 90 | 990.5 |
| 20260507075004 | 48 | 0 | 3.0 | 6.0 | 0.00 | 0.46 | 0.11 | 88 | 990.6 |
| 20260507073004 | 49 | 319 | 1.0 | 6.0 | 0.00 | 0.46 | 0.11 | 92 | 990.3 |
| 20260507072004 | 49 | 358 | 3.0 | 6.0 | 0.00 | 0.46 | 0.11 | 92 | 990.5 |
| 20260507070008 | 49 | 354 | 2.0 | 3.0 | 0.00 | 0.46 | 0.11 | 93 | 990.0 |
| 20260507065004 | 49 | 353 | 1.0 | 6.0 | 0.00 | 0.46 | 0.11 | 94 | 990.0 |
| 20260507063004 | 49 | 308 | 1.0 | 3.0 | 0.00 | 0.46 | 0.11 | 94 | 989.9 |
| 20260507060004 | 50 | 311 | 1.0 | 6.0 | 0.00 | 0.46 | 0.11 | 93 | 989.7 |
| 20260507055004 | 50 | 322 | 1.0 | 5.0 | 0.00 | 0.46 | 0.11 | 93 | 989.5 |
| 20260507054004 | 50 | 322 | 1.0 | 7.0 | 0.01 | 0.46 | 0.11 | 93 | 989.5 |
| 20260507053004 | 51 | 295 | 1.0 | 7.0 | 0.01 | 0.46 | 0.11 | 93 | 989.3 |
| 20260507052004 | 52 | 351 | 2.0 | 6.0 | 0.01 | 0.46 | 0.11 | 95 | 989.4 |
| 20260507051003 | 52 | 51 | 0.0 | 5.0 | 0.04 | 0.46 | 0.11 | 95 | 989.4 |
| 20260507050004 | 52 | 62 | 0.0 | 8.0 | 0.11 | 0.46 | 0.11 | 95 | 989.4 |
| 20260507044006 | 52 | 354 | 2.0 | 7.0 | 0.11 | 0.45 | 0.10 | 95 | 989.3 |
| 20260507043004 | 52 | 336 | 2.0 | 7.0 | 0.11 | 0.45 | 0.10 | 95 | 989.2 |
| 20260507042005 | 53 | 44 | 2.0 | 9.0 | 0.11 | 0.45 | 0.10 | 95 | 989.3 |
| 20260507041004 | 53 | 5 | 3.0 | 9.0 | 0.08 | 0.42 | 0.07 | 95 | 989.6 |
| 20260507040004 | 54 | 343 | 4.0 | 12.0 | 0.01 | 0.35 | 0.00 | 95 | 989.4 |
| 20260507035004 | 55 | 13 | 1.0 | 9.0 | 0.01 | 0.35 | 0.35 | 96 | 988.8 |
| 20260507034004 | 55 | 336 | 0.0 | 5.0 | 0.00 | 0.34 | 0.34 | 96 | 988.7 |
| 20260507033003 | 55 | 247 | 0.0 | 0.0 | 0.00 | 0.34 | 0.34 | 96 | 988.7 |
| 20260507032004 | 55 | 247 | 0.0 | 0.0 | 0.00 | 0.34 | 0.34 | 96 | 988.4 |
| 20260507031004 | 55 | 247 | 0.0 | 0.0 | 0.00 | 0.34 | 0.34 | 96 | 988.3 |
| 20260507030004 | 55 | 247 | 0.0 | 0.0 | 0.00 | 0.34 | 0.34 | 96 | 988.3 |
| 20260507025004 | 55 | 247 | 0.0 | 0.0 | 0.00 | 0.34 | 0.34 | 96 | 988.3 |
| 20260507024003 | 54 | 247 | 0.0 | 0.0 | 0.00 | 0.34 | 0.34 | 96 | 988.4 |
| 20260507022004 | 54 | 247 | 0.0 | 0.0 | 0.01 | 0.34 | 0.34 | 96 | 988.6 |
| 20260507020004 | 55 | 247 | 0.0 | 1.0 | 0.01 | 0.34 | 0.34 | 96 | 988.7 |